Total_Precipitation_Accumulation
1.90 1.91 2.68 2.53 2.33 2.25 2.14 2.10 1.96 1.84 1.75 1.58 1.41 1.28 1.25 1.19 1.12 1.06 1.03 0.98 1.02 1.13 1.11 1.26 1.32 1.15 1.11 1.09 1.07 1.05 1.10 1.23 1.18 1.01 0.97 1.01 1.08 1.34 1.48 1.59 1.66 1.61 1.63
1.48 1.87 2.77 2.64 2.45 2.25 2.13 2.14 1.97 1.74 1.54 1.36 1.29 1.22 1.18 1.13 1.12 0.99 0.93 0.95 0.97 1.01 1.04 1.20 1.26 1.18 1.19 1.20 1.26 1.31 1.30 1.27 1.20 1.08 1.18 1.25 1.32 1.44 1.46 1.54 1.81 1.79 1.60
1.37 1.60 2.16 2.70 2.51 2.30 2.21 2.19 2.04 1.77 1.42 1.22 1.20 1.18 1.07 1.03 1.02 0.96 0.96 0.91 0.89 0.89 0.86 0.98 1.16 1.18 1.18 1.20 1.29 1.34 1.38 1.29 1.24 1.37 1.81 2.26 1.87 1.63 1.44 1.53 1.67 1.56 1.51
1.26 1.43 1.71 2.46 2.39 2.33 2.29 2.06 1.97 1.70 1.34 1.21 1.20 1.15 1.00 0.96 1.02 1.06 1.06 0.94 0.91 0.88 0.83 0.84 1.07 1.13 1.12 1.14 1.12 1.15 1.28 1.30 1.37 1.69 2.19 2.62 2.42 1.95 1.72 1.59 1.55 1.51 1.50
1.27 1.48 2.09 2.57 2.34 2.26 2.11 1.89 1.84 1.71 1.46 1.33 1.22 1.12 1.06 1.01 0.99 1.06 1.03 0.99 0.99 0.97 0.96 0.98 1.14 1.15 1.09 1.04 1.02 1.10 1.28 1.50 1.69 1.69 2.01 2.35 2.57 2.29 1.82 1.59 1.59 1.61 1.66
1.30 1.49 2.03 2.30 2.06 1.93 1.85 1.75 1.67 1.70 1.70 1.46 1.26 1.18 1.16 1.12 1.14 1.14 1.13 1.05 1.11 1.12 1.16 1.14 1.14 1.19 1.15 1.09 1.10 1.16 1.37 1.62 1.61 1.64 2.00 2.28 2.37 2.17 1.76 1.60 1.69 1.80 1.91
1.13 1.24 1.62 1.99 1.82 1.71 1.67 1.65 1.55 1.63 1.73 1.57 1.28 1.28 1.29 1.24 1.27 1.28 1.26 1.18 1.21 1.20 1.23 1.25 1.15 1.21 1.21 1.17 1.20 1.28 1.42 1.50 1.39 1.61 2.01 2.33 2.19 1.97 1.82 1.68 1.68 1.93 2.17
1.18 1.13 1.27 1.61 1.65 1.53 1.55 1.65 1.55 1.54 1.64 1.57 1.40 1.36 1.26 1.26 1.34 1.38 1.27 1.20 1.18 1.23 1.31 1.32 1.24 1.23 1.18 1.20 1.29 1.45 1.54 1.41 1.13 1.26 1.54 2.16 2.51 2.30 1.89 1.63 1.68 1.84 2.09
1.46 1.33 1.19 1.19 1.29 1.36 1.45 1.57 1.53 1.49 1.48 1.43 1.47 1.45 1.41 1.39 1.36 1.29 1.22 1.18 1.19 1.25 1.31 1.30 1.21 1.20 1.23 1.25 1.28 1.41 1.55 1.49 1.29 1.26 1.27 1.96 2.53 2.43 1.91 1.61 1.57 1.79 1.94
1.53 1.40 1.18 1.06 1.06 1.17 1.14 1.30 1.52 1.56 1.50 1.40 1.42 1.45 1.48 1.43 1.29 1.23 1.12 1.17 1.24 1.27 1.40 1.39 1.30 1.26 1.30 1.26 1.29 1.43 1.55 1.41 1.16 1.12 1.34 1.85 2.54 2.58 2.23 1.68 1.46 1.48 1.59
1.26 1.18 1.10 1.05 1.09 1.19 1.20 1.19 1.47 1.57 1.49 1.31 1.25 1.32 1.34 1.17 1.11 1.12 1.09 1.36 1.37 1.46 1.57 1.55 1.48 1.42 1.30 1.29 1.44 1.56 1.40 1.17 1.18 1.21 1.53 2.07 2.48 2.52 2.34 1.91 1.54 1.41 1.41
0.98 0.88 0.85 0.86 0.96 1.08 1.12 1.44 1.68 1.51 1.43 1.18 1.21 1.12 1.14 1.18 1.24 1.06 1.16 1.50 1.56 1.62 1.64 1.66 1.61 1.47 1.18 1.01 1.23 1.30 1.14 1.15 1.16 1.18 1.55 2.17 2.48 2.46 2.24 1.97 1.69 1.53 1.47
0.75 0.67 0.62 0.59 0.60 0.69 0.89 1.23 1.53 1.67 1.67 1.62 1.44 1.23 1.21 1.03 0.93 0.89 0.95 1.13 1.25 1.37 1.35 1.40 1.39 1.17 1.03 1.00 1.01 1.01 1.15 1.13 1.27 1.26 1.58 2.09 2.38 2.46 2.28 2.03 1.77 1.61 1.55
0.71 0.67 0.58 0.55 0.50 0.52 0.59 0.76 0.97 1.16 1.26 1.32 1.23 1.09 1.16 1.04 0.95 0.96 0.95 0.94 0.96 1.09 1.24 1.24 1.25 1.15 0.99 0.90 0.88 0.98 1.05 1.06 1.23 1.46 1.72 1.84 2.10 2.40 2.43 2.19 1.95 1.78 1.73
0.82 0.82 0.71 0.59 0.54 0.54 0.57 0.63 0.69 0.86 0.97 1.01 1.06 1.00 1.03 1.05 1.03 0.99 0.91 0.92 0.85 0.96 1.12 1.23 1.20 1.13 1.12 1.04 0.95 1.05 1.11 1.23 1.27 1.34 1.49 1.62 1.86 2.29 2.64 2.62 2.32 2.04 1.93
0.87 0.86 0.83 0.70 0.66 0.63 0.59 0.60 0.62 0.71 0.80 0.83 0.81 0.81 0.92 1.02 1.02 1.01 0.99 1.01 0.98 1.02 1.15 1.19 1.11 1.18 1.27 1.16 0.97 0.98 1.09 1.18 1.26 1.28 1.34 1.51 1.67 1.89 2.43 2.76 2.66 2.43 2.37
0.86 0.81 0.81 0.79 0.79 0.78 0.72 0.66 0.65 0.72 0.79 0.79 0.76 0.71 0.74 0.84 0.90 0.95 0.97 0.97 1.02 1.13 1.21 1.27 1.11 1.16 1.17 1.09 1.03 0.99 1.01 1.06 1.10 1.15 1.13 1.22 1.37 1.59 2.03 2.46 2.75 2.77 2.81
0.72 0.71 0.75 0.75 0.76 0.80 0.80 0.81 0.83 0.80 0.86 0.81 0.79 0.72 0.69 0.75 0.83 0.97 0.99 0.97 0.99 1.15 1.29 1.38 1.30 1.29 1.26 1.21 1.18 1.10 1.00 1.08 1.03 1.07 1.11 1.12 1.30 1.29 1.57 1.89 2.18 2.45 2.77
0.65 0.64 0.65 0.68 0.67 0.74 0.80 0.84 0.94 0.96 0.97 0.90 0.88 0.79 0.76 0.83 0.93 1.12 1.22 1.21 1.20 1.23 1.27 1.27 1.37 1.40 1.40 1.36 1.28 1.22 1.13 1.09 1.15 1.07 1.11 1.17 1.17 1.23 1.39 1.48 1.61 1.73 2.11
0.63 0.60 0.58 0.64 0.64 0.68 0.80 0.91 1.07 1.19 1.16 1.15 1.07 0.95 0.95 1.10 1.28 1.46 1.45 1.53 1.59 1.49 1.47 1.44 1.49 1.46 1.40 1.43 1.31 1.20 1.14 1.07 1.20 1.26 1.22 1.25 1.23 1.20 1.45 1.57 1.53 1.33 1.54
0.56 0.57 0.56 0.55 0.63 0.66 0.70 0.83 1.04 1.33 1.44 1.54 1.46 1.26 1.20 1.32 1.57 1.82 1.79 1.88 1.95 1.87 1.82 1.82 2.05 2.00 1.72 1.49 1.56 1.40 1.23 1.12 1.29 1.37 1.31 1.37 1.45 1.51 1.62 1.63 1.52 1.36 1.21
0.43 0.49 0.50 0.50 0.58 0.63 0.67 0.83 0.99 1.15 1.16 1.33 1.46 1.43 1.34 1.33 1.49 1.63 1.91 2.05 2.03 2.13 2.24 2.21 2.59 2.72 2.24 1.80 1.84 2.04 1.79 1.61 1.43 1.31 1.32 1.36 1.52 1.72 1.76 1.60 1.47 1.30 1.16
0.33 0.34 0.35 0.39 0.48 0.59 0.72 0.92 1.13 1.33 1.41 1.49 1.41 1.49 1.50 1.41 1.46 1.58 1.73 1.89 1.93 2.05 2.20 2.30 2.64 3.17 2.93 2.30 2.07 2.42 2.19 1.98 1.86 1.52 1.32 1.34 1.46 1.74 1.97 1.87 1.64 1.44 1.26
0.30 0.27 0.29 0.38 0.51 0.69 0.90 1.12 1.35 1.56 1.60 1.50 1.54 1.58 1.46 1.38 1.35 1.44 1.57 1.71 1.84 1.88 2.03 2.12 2.26 2.80 3.20 2.88 2.55 2.22 1.91 1.87 2.03 1.94 1.57 1.45 1.48 1.61 1.80 1.79 1.67 1.62 1.46
0.33 0.33 0.38 0.58 0.81 1.05 1.26 1.51 1.77 1.75 1.65 1.55 1.55 1.55 1.48 1.48 1.45 1.45 1.58 1.66 1.68 1.75 1.87 2.21 2.47 2.76 3.00 2.98 2.92 2.71 2.44 2.16 1.83 2.05 2.05 1.77 1.63 1.58 1.62 1.66 1.61 1.62 1.60
0.62 0.75 0.93 1.19 1.38 1.47 1.58 1.72 1.84 1.78 1.78 1.73 1.56 1.48 1.47 1.52 1.58 1.60 1.65 1.66 1.63 1.68 1.79 2.04 2.33 2.55 2.85 3.05 2.97 2.79 2.66 2.53 2.31 2.22 2.07 1.93 1.91 1.72 1.58 1.55 1.47 1.48 1.59